Weather in Roja

Latvia     57°30′02″N   22°48′02″E
temp.,
°C
wind,
m/s
gust,
m/s
humid.,
%
clouds,
%
prec.,
mm/h
press.,
hPa
HPBL,
m
1 march, mon
mon123:00+2nw47900 0.0 1027137
02:00+1wnw34900 0.0 102952
05:00+2w46901 0.0 102789
08:00+2wsw58901 0.0 1027137
11:00+6wsw6117222 0.0 1026326
14:00+8w7116819 0.0 1024384
17:00+4w71178100 0.0 1023359
20:00+2wnw598973 0.0 1023205
2 march, tue
tue223:00+2w478860 0.0 1023134
02:00+2w478758 0.0 1023120
05:00+2wsw698477 0.0 1020166
08:00+2wnw6128263 0.0 1022291
11:00+4nnw712730 0.0 1024607
14:00+4nnw711690 0.0 1026596
17:00+3nw712700 0.0 1027523
20:00+2nw612770 0.0 1029329
3 march, wed
wed323:00+1nw510820 0.0 1029243
02:00+1w588317 0.0 1029185
05:00+1w5886100 0.0 1028198
08:00+1wsw478767 0.0 1027155
11:00+4wsw587013 0.0 1025330
14:00+6wsw6105820 0.0 1022532
17:00+5wsw611740 0.0 1017478
20:00+3wsw7128637 0.0 1014448
4 march, thu
thu423:00+3wsw6128872 0.0 1010380
02:00+2wnw6109176 0.0 1008371
05:00+2nnw61178100 0.1 1007423
08:000nnw5969100 0.1 1008711
11:000nnw696633 0.0 1009729
14:00+1nnw686340 0.0 1010778
17:000nnw57640 0.0 1009643
20:00−1nw47770 0.0 1010385
5 march, fri
fri523:00−1nw597312 0.0 1011812
02:00−2nnw697410 0.0 1011907
05:00−2n58620 0.0 1011870
08:00−2nnw46540 0.0 1012712
11:00−1w245011 0.0 1013932
14:00−2nne357751 1.8 1014743
17:00−2nnw576160 0.2 10151270
20:00−3nnw686559 0.3 10171035